Location: Bjelajci
(45.0103°N, 16.1758°E)
Time: 04:11:34
(UTC+00:00)

SL-19 R/B - Pass Details

Date: 14 July 2020
Orbit: 358 x 810 km, 99.4° (Epoch: 11 August)

Event Time Altitude Azimuth Distance (km) Brightness Sun altitude
Rises 02:34:03 0° 13° (NNE) 2,222 8.4 -7.6°
Reaches altitude 10° 02:35:56 10° 11° (N) 1,392 7.2 -7.4°
Maximum altitude 02:38:50 70° 288° (WNW) 424 3.7 -7.0°
Drops below altitude 10° 02:42:00 10° 203° (SSW) 1,511 6.0 -6.6°
Enters shadow 02:42:51 - 202° (SSW) 1,881 6.5 -6.5°
